User: anonymous   Login
Location: Tauranga
(37.6860°S, 176.1670°E)
Time: 19:57:08
(UTC+13:00)
Language:

Cosmos 1733 Rocket - Orbit

View from above orbital plane
View from above orbital plane
View from above satellite
View from above satellite

Ground track
Ground track

The orbit data is extracted from the following two-line orbital elements,

1 16612U 86018B   19290.13549517  .00000070  00000-0  54400-5 0  9990
2 16612  82.5192 217.0604 0016649 217.2160 268.1400 14.84240337717822
Epoch (UTC): 17 October 2019 03:15:06
Eccentricity: 0.0016649
inclination: 82.5192°
perigee height: 604 km
apogee height: 627 km
right ascension of ascending node: 217.0604°
argument of perigee: 217.2160°
revolutions per day: 14.84240337
mean anomaly at epoch: 268.1400°
orbit number at epoch: 71782

The dashed part of the orbit path shows where the satellite is in the earth's shadow,  

DLR